sat.trackr.live / text

‹ back to catalog

STARLINK-32274

NORAD 60922 · 2024-154V

PAYLOAD ACTIVE UNKNOWN

§ Identity

Operator
Country
US
Launch date
2024-08-31
Launch site
AFETR
Launch vehicle
Mass (kg)
RCS (m²)

Purposes: comms

External: N2YO · Heavens-Above · Gunter

§ Orbital elements

Epoch: 2026-05-25T02:34:08.660352Z

Period
94.11 min
Inclination
53.1616°
Eccentricity
0.0000921
Mean motion
15.30188116 rev/d
Perigee alt
474.6 km
Apogee alt
475.9 km
Semi-major
6,853.4 km
B*
2.7158e-5
RAAN
288.9716°
Arg perigee
97.8242°
Mean anomaly
262.2864°
Rev number
9,804

§ Raw data

STARLINK-322741 60922U 24154V   26145.10704468  .00000445  00000+0  27158-4 0  99922 60922  53.1616 288.9716 0000921  97.8242 262.2864 15.30188116 98043

JSON: /api/v1/satellites/60922 · /tle

For live sub-satellite position, see the globe view (requires WebGL).

§ Visibility from observer

Set your observer location to see the next 7 days of passes ≥ 10°. The values pass through the URL so the page stays shareable.

No JS? Fill the form by hand. The geolocation button needs JavaScript.